Theta_e
291 292 293 294 294 295 296 296 296 296 296 297 297 298 299 300 299 294 292 294 289 284 285 285 286 286 287 288 287 286 287 286 284 282 283 277 275 280 278 282 285 285 283 281 280 271 275 287 286 284 287 286 287 287
292 292 292 293 294 295 295 295 295 296 296 296 296 297 298 298 298 297 289 294 293 286 285 288 286 288 288 289 287 285 285 286 287 285 283 278 277 278 277 278 284 282 286 283 285 282 287 285 286 286 288 288 287 289
291 292 291 292 293 294 294 294 295 295 295 295 295 296 297 297 297 295 292 292 289 285 285 285 284 287 290 288 291 287 286 288 286 287 284 281 276 278 277 275 280 282 282 285 284 281 283 285 286 286 287 286 287 288
289 291 292 292 293 293 294 293 294 294 294 295 295 295 296 297 297 295 291 292 288 285 280 282 287 285 288 291 294 293 290 290 289 288 285 281 275 283 278 281 280 282 283 278 279 280 282 284 284 286 286 287 287 287
287 290 291 292 292 292 292 293 293 293 293 293 294 294 296 297 297 293 292 292 292 285 278 281 284 285 287 291 292 292 291 288 286 285 284 280 278 279 280 281 278 283 283 283 280 285 285 286 286 285 285 285 286 286
289 290 290 291 292 292 292 292 292 292 292 292 293 293 295 295 292 285 281 289 292 288 281 275 282 282 284 286 286 287 288 286 285 285 282 279 281 279 275 271 281 285 287 289 289 288 289 289 288 285 286 285 285 285
289 290 290 290 290 290 290 291 291 291 291 292 292 293 294 294 288 280 276 285 293 288 279 276 277 283 284 283 283 284 284 283 284 282 282 281 280 280 270 272 281 283 286 285 286 287 287 287 286 284 285 283 281 279
288 288 288 289 289 289 289 289 290 291 291 291 292 293 294 293 288 286 290 294 291 282 278 272 274 279 284 279 280 282 281 281 281 279 278 279 279 275 274 280 282 281 284 283 283 283 283 283 282 281 280 279 280 278
286 286 286 286 288 288 288 288 290 290 291 292 294 294 289 281 274 284 293 291 288 281 271 269 271 271 282 279 280 280 280 276 280 277 278 277 273 273 278 281 282 281 280 280 277 276 277 278 277 276 275 276 277 277
285 286 286 286 287 288 288 288 289 290 291 293 287 281 276 278 290 288 279 274 276 275 272 267 268 273 279 277 274 275 275 275 271 275 277 271 268 277 273 276 276 276 278 277 277 277 275 273 274 274 273 272 273 273
285 285 285 286 286 287 288 287 288 288 290 277 280 275 284 290 278 271 267 267 264 268 271 266 268 274 279 274 271 278 272 269 267 271 270 267 270 275 269 270 269 269 272 270 272 272 270 269 270 270 271 269 269 268
284 284 284 285 286 287 287 287 287 287 283 280 283 282 276 270 266 266 259 264 263 263 271 270 270 273 275 277 275 273 269 269 265 269 269 262 270 264 262 263 264 263 263 264 262 263 263 265 262 263 261 262 262 264
284 284 285 286 287 287 288 288 289 290 289 284 279 269 270 264 262 257 258 259 261 263 268 271 273 274 276 276 271 270 268 266 267 268 267 264 263 260 258 258 259 260 258 257 257 258 258 257 257 255 256 255 258 261
283 284 285 286 287 287 287 287 288 290 280 276 271 263 260 259 257 256 257 258 261 262 265 268 271 271 270 272 269 266 267 271 264 263 265 258 255 254 255 255 255 255 255 254 253 254 254 254 254 252 252 252 254 257
284 285 286 286 286 286 286 286 286 278 269 268 266 259 258 256 254 254 254 263 266 265 262 265 267 270 269 269 268 264 262 260 261 262 256 254 252 252 252 251 251 251 251 252 251 251 252 252 252 251 251 250 251 252
282 281 281 285 284 284 284 278 271 271 261 259 253 257 257 256 258 255 258 259 264 266 261 264 262 260 261 260 261 261 262 258 259 252 252 251 249 249 249 249 249 249 249 249 250 250 251 251 250 249 249 250 250 249
282 274 284 284 283 280 278 268 261 258 258 257 254 249 250 251 250 251 251 257 262 260 259 256 259 258 262 258 258 255 257 253 249 250 250 248 247 248 247 247 248 248 247 247 247 249 248 249 248 251 251 250 247 247
272 276 283 283 277 274 266 262 257 255 251 254 253 251 250 251 249 251 254 258 257 256 256 260 261 256 253 256 255 250 248 246 246 248 251 250 250 250 250 251 250 248 248 247 246 245 246 249 250 249 246 248 248 248
278 277 279 279 274 266 262 259 257 252 249 248 250 251 249 250 252 254 254 256 256 255 255 256 254 248 247 247 245 246 247 246 248 250 250 248 248 249 252 253 253 250 248 247 246 246 244 243 246 247 248 247 248 248
278 279 278 275 272 262 256 255 258 254 250 252 251 251 249 252 250 249 254 253 253 249 246 245 244 243 246 245 245 244 247 248 245 244 248 253 252 252 252 251 250 249 249 247 245 247 246 247 246 246 245 245 245 248
271 272 272 266 260 259 255 252 253 251 248 251 248 252 251 249 248 248 249 251 249 245 244 243 244 247 247 244 243 243 246 247 245 245 244 247 250 250 250 249 249 248 247 248 247 248 247 244 246 245 243 244 245 246
265 271 263 265 261 259 256 254 253 251 252 248 250 248 249 249 246 248 248 247 246 245 243 244 245 245 245 246 246 246 246 246 247 248 249 249 248 249 250 249 247 248 248 247 244 245 246 246 246 244 244 246 247 246
263 264 258 257 258 255 250 252 251 250 251 249 247 248 247 245 248 250 245 242 244 247 245 244 243 243 245 244 245 246 243 243 243 245 246 246 246 246 243 243 241 241 244 245 243 244 245 248 248 247 246 246 246 246
258 250 249 248 250 245 249 249 251 251 250 249 247 246 248 247 253 250 244 244 245 245 242 241 237 242 242 241 241 240 241 238 239 242 240 239 241 243 241 242 241 242 244 246 245 245 245 246 249 247 247 247 247 247
252 244 246 244 246 246 246 246 245 247 244 245 250 251 250 249 250 249 248 248 247 241 241 238 238 239 239 239 240 240 239 239 241 240 242 238 239 240 243 242 242 243 242 242 243 243 245 246 246 246 245 245 245 246
242 240 242 239 242 243 239 242 240 240 239 242 241 243 247 247 247 245 244 244 242 242 243 243 243 243 244 245 244 243 243 240 240 240 245 242 242 243 243 243 244 246 244 243 243 242 244 246 244 244 245 245 246 244
244 241 240 238 239 239 240 239 238 241 239 240 238 243 248 249 247 250 251 252 250 249 249 248 247 247 247 247 246 246 245 243 245 247 248 246 247 247 247 247 248 248 243 242 241 240 241 242 243 244 244 244 242 243
237 238 240 241 240 237 238 237 238 239 237 237 237 242 245 246 248 251 252 251 247 244 243 244 244 245 245 246 246 243 245 239 240 243 245 245 245 245 244 244 244 251 248 243 243 243 241 242 242 243 244 244 246 244
237 235 235 240 238 239 236 238 237 236 236 234 239 242 243 244 244 243 246 243 237 238 240 242 243 235 241 240 241 241 240 237 241 243 242 244 243 247 240 240 240 241 242 242 246 251 248 246 247 248 248 248 248 246
237 230 238 236 240 242 238 234 234 230 229 232 231 236 237 239 240 238 238 238 240 243 241 238 239 234 240 237 242 244 239 239 242 245 243 246 246 242 238 240 244 245 243 239 243 244 248 247 244 241 242 244 244 245
232 231 236 236 239 236 232 227 226 227 227 227 225 231 236 236 238 240 239 238 236 233 237 242 241 235 236 238 236 238 247 241 240 243 244 245 246 246 246 247 246 245 242 241 242 242 244 244 243 243 243 244 245 245
234 234 238 243 241 233 229 230 230 232 231 232 234 227 234 237 242 248 244 238 237 240 245 241 239 248 244 245 243 244 247 249 247 246 244 245 246 246 247 247 246 243 243 243 243 243 243 242 243 244 245 245 245 245
233 229 230 234 238 240 235 234 237 239 235 236 238 234 234 239 246 250 244 243 249 250 250 250 248 247 246 245 246 248 247 246 247 251 252 252 250 250 249 248 247 245 244 244 244 245 244 244 244 244 244 245 245 246
Wind_Speed
4 5 7 9 9 8 12 11 10 11 10 8 7 8 8 5 5 3 1 3 2 2 3 6 7 4 3 3 7 6 6 2 2 5 6 5 5 6 5 5 10 14 9 5 4 3 12 5 4 9 2 1 2 2
7 6 7 9 10 12 10 10 10 10 9 8 6 7 7 7 6 4 2 0 2 4 1 1 2 8 8 5 6 3 2 4 3 6 3 5 4 3 5 5 0 5 9 9 11 7 6 3 2 3 2 2 1 3
11 9 4 8 8 10 11 11 11 10 9 8 6 7 7 6 4 3 1 1 3 3 2 4 5 8 13 8 6 6 2 3 3 2 5 3 5 3 5 4 5 3 2 4 5 4 3 1 2 2 3 1 1 1
8 11 8 8 9 10 11 11 10 10 9 9 8 7 7 6 6 5 2 3 2 3 3 3 6 5 12 7 9 9 7 5 4 3 4 4 4 1 3 3 4 3 6 5 3 4 1 2 3 3 2 3 3 2
5 8 11 11 11 10 11 12 11 9 7 6 7 8 5 9 10 7 4 4 3 2 3 2 4 9 11 6 12 12 10 5 3 4 4 2 2 4 1 2 1 4 5 4 4 4 3 1 1 3 4 2 1 1
8 9 10 12 14 14 12 12 10 8 7 6 4 5 5 6 6 4 4 3 3 2 5 3 3 6 7 9 12 9 4 4 3 4 3 2 1 3 4 1 3 2 1 2 4 4 1 5 4 3 4 2 2 4
12 11 12 11 12 11 11 11 9 7 5 4 3 3 4 8 4 4 5 3 3 2 5 3 1 4 4 3 3 5 5 3 3 2 3 3 2 3 3 2 1 2 3 4 5 3 3 4 3 4 3 4 2 2
12 10 9 10 10 10 10 9 10 8 3 1 2 5 9 8 6 4 4 5 2 4 4 4 1 2 6 3 3 3 2 3 5 1 1 3 0 1 2 2 1 3 5 5 6 6 3 3 5 6 5 4 4 3
8 9 9 7 9 7 8 8 9 7 3 3 12 11 5 6 4 1 2 5 3 5 4 3 4 3 2 2 1 2 2 4 2 2 2 3 2 1 2 2 2 4 4 2 2 4 4 3 3 4 5 7 6 6
6 7 8 7 8 7 8 8 10 6 4 14 5 3 2 3 4 4 8 6 6 5 5 3 2 3 3 2 2 3 3 2 2 2 2 4 2 3 10 8 8 10 7 4 4 4 5 4 5 4 3 2 2 3
6 5 6 6 7 7 8 5 6 3 9 4 3 1 2 2 4 4 4 5 4 4 3 1 2 4 4 4 3 2 2 1 3 3 4 1 2 3 12 10 12 12 12 11 8 6 5 3 3 4 5 7 6 6
4 3 4 5 6 6 5 4 4 2 1 4 4 4 4 6 5 7 2 4 4 3 1 1 0 2 1 2 4 3 4 3 2 2 4 1 1 8 12 12 13 14 13 10 10 9 9 8 7 5 5 6 7 7
3 3 3 4 6 6 6 6 5 6 12 4 4 5 5 4 9 6 0 5 1 2 2 0 3 2 2 3 4 4 5 1 1 3 3 4 3 6 9 9 10 10 11 9 10 8 8 6 7 7 7 5 7 6
2 3 5 7 7 7 8 9 8 10 3 3 3 4 4 3 2 5 5 4 3 0 1 2 3 3 1 5 1 6 2 1 3 1 5 1 5 8 8 8 8 11 11 9 9 9 9 8 6 6 6 6 6 7
4 6 9 12 12 12 9 11 11 6 5 4 4 3 2 2 1 1 2 1 3 2 2 3 4 3 3 4 3 4 5 0 5 5 2 3 6 7 8 8 8 9 9 8 7 7 8 8 6 5 7 7 7 7
5 6 7 8 10 15 9 11 7 3 6 6 11 4 2 4 3 5 5 3 5 5 2 4 4 6 3 4 5 3 6 5 3 0 2 4 4 4 4 5 5 5 6 6 6 5 5 7 6 6 5 7 8 6
11 3 15 10 9 13 19 7 3 10 6 6 4 3 1 2 2 2 2 4 6 2 2 3 6 5 1 5 3 1 3 1 1 2 2 2 4 6 6 4 3 5 6 6 5 6 5 5 3 5 9 8 6 6
4 6 14 11 6 6 5 6 7 8 9 4 4 4 2 2 1 3 3 5 5 3 2 2 3 5 4 4 3 2 2 3 2 2 2 2 4 5 3 6 6 4 6 5 4 4 4 7 7 5 5 6 5 5
9 8 18 13 7 6 6 7 5 8 2 1 1 2 2 1 0 1 3 4 1 1 3 5 8 3 1 1 1 2 2 3 3 5 6 4 2 5 5 6 6 5 6 6 5 4 3 2 2 4 4 4 3 4
8 20 19 17 7 5 8 6 4 7 4 1 3 4 2 2 2 3 6 7 5 5 10 8 2 2 1 2 2 3 3 2 1 4 3 2 3 8 7 6 5 6 4 4 3 3 3 3 2 3 3 2 3 4
11 10 15 7 6 9 7 4 6 3 2 4 2 2 2 3 5 6 6 6 7 6 3 1 2 3 3 3 3 2 3 2 1 2 3 5 4 5 4 3 4 2 1 3 3 5 5 2 4 4 3 3 2 3
4 13 4 9 7 6 7 6 4 0 4 1 4 3 5 4 5 4 3 8 5 1 2 2 3 2 3 3 3 3 3 3 4 4 6 6 4 4 5 4 4 5 5 4 2 4 4 4 4 3 3 4 3 3
7 8 8 11 9 11 4 4 7 7 6 4 3 6 5 4 2 1 5 2 2 2 2 2 4 4 5 4 3 3 1 0 2 3 4 3 4 4 3 4 2 2 4 4 1 3 4 5 5 3 3 3 2 3
13 12 10 8 9 4 3 7 4 5 4 6 5 4 4 3 4 5 3 2 3 1 2 3 2 4 3 3 2 3 3 2 2 3 2 1 3 4 2 4 3 3 4 4 4 4 3 3 4 3 3 3 3 2
13 14 9 10 6 8 9 7 8 7 5 5 3 4 4 4 4 4 1 3 3 2 3 3 2 1 2 4 3 4 3 3 1 3 4 4 2 3 3 2 3 4 1 2 4 3 4 3 4 4 4 3 4 5
14 7 7 5 6 6 2 5 5 3 3 5 2 4 3 3 5 1 3 3 3 3 3 2 2 3 3 4 3 3 4 3 3 2 5 4 4 3 3 4 4 4 1 2 1 3 5 4 4 7 6 6 6 4
10 7 4 0 3 2 4 2 1 4 5 4 4 7 3 5 2 3 2 2 2 2 2 2 3 4 5 6 4 4 3 3 5 6 6 5 6 5 6 6 6 4 2 2 2 3 4 6 6 6 6 5 5 5
3 4 4 7 4 1 4 3 5 3 3 2 1 4 4 3 3 3 3 1 1 2 3 4 4 5 5 6 5 4 6 2 4 8 7 7 6 5 6 5 5 11 6 3 4 4 5 6 7 7 7 8 9 4
4 4 0 5 4 5 3 3 2 3 2 3 2 2 3 4 3 3 3 1 1 3 4 4 4 3 5 4 5 4 3 2 3 4 4 5 5 5 3 3 4 3 4 5 10 11 10 9 9 10 10 8 8 5
5 2 3 2 4 3 3 4 3 2 1 2 1 4 4 5 6 2 2 2 1 4 4 4 4 1 4 2 6 8 3 5 7 6 4 6 6 3 2 4 6 7 4 5 7 7 9 6 6 4 5 6 5 6
1 3 3 2 1 3 3 1 1 1 1 1 1 3 5 6 7 4 4 4 2 0 2 4 4 3 3 4 4 3 6 3 7 10 9 7 8 8 8 8 7 5 5 5 6 7 8 7 6 8 9 11 12 10
4 3 2 4 4 2 2 3 1 1 2 1 3 1 4 3 4 5 4 4 2 2 6 4 3 6 5 5 4 5 10 9 7 8 11 9 10 10 9 7 7 5 6 8 8 8 9 11 10 11 12 14 14 14
2 0 1 2 4 5 4 4 3 5 2 2 3 2 3 3 6 5 2 6 6 5 5 5 5 5 7 8 9 8 9 9 11 13 15 16 16 14 9 8 7 8 9 9 9 9 11 13 13 15 15 16 16 16
Wind_Direction
111 113 95 89 108 120 145 147 141 133 131 113 95 78 63 158 117 105 90 1 97 86 17 349 339 28 11 107 146 158 96 283 67 101 135 191 128 205 99 164 165 175 167 176 153 198 253 193 63 174 240 120 338 61
61 96 103 101 100 106 113 118 120 126 125 122 100 73 70 82 83 66 104 326 55 81 45 323 18 19 5 354 119 48 66 144 167 105 82 99 104 126 140 190 329 154 188 191 190 193 222 219 120 32 348 132 75 97
48 63 105 106 98 113 110 105 102 100 102 110 95 76 60 46 62 126 116 15 63 76 41 24 352 332 355 356 293 110 29 138 63 296 136 129 114 130 155 230 100 273 164 190 106 268 213 128 2 89 342 294 212 100
43 54 68 102 97 125 116 102 89 88 93 93 78 67 68 71 71 72 60 3 64 83 75 13 320 8 313 334 42 60 111 69 87 41 78 96 119 136 197 144 136 188 129 154 304 290 336 212 226 186 189 328 333 37
59 65 79 83 86 92 101 92 83 69 70 68 69 54 81 72 83 71 61 33 45 95 125 61 307 343 349 54 80 69 60 59 65 60 60 92 132 113 339 82 324 185 169 170 220 190 131 199 78 132 158 197 211 114
75 74 78 94 91 88 84 73 66 55 52 45 69 50 94 94 23 45 47 356 4 38 93 64 294 332 345 16 63 60 39 43 70 100 87 73 295 103 95 178 277 182 98 15 151 173 2 71 115 72 118 100 10 5
85 79 79 83 87 75 63 53 44 41 33 29 51 41 87 62 56 80 180 235 348 45 87 98 27 328 332 5 43 27 24 45 47 70 66 93 36 53 92 144 22 152 156 96 72 76 43 4 332 25 72 104 108 104
87 84 79 77 69 56 42 33 22 16 24 88 71 102 84 84 54 30 349 8 35 85 68 105 359 34 359 26 46 360 61 30 17 101 49 100 69 70 97 258 21 53 101 70 49 34 25 8 21 2 353 12 35 43
85 75 64 57 60 45 28 26 11 5 8 145 105 67 35 36 46 296 351 21 49 91 108 86 128 166 342 61 61 29 49 64 303 75 54 70 339 117 23 45 52 28 53 147 47 61 22 54 351 23 13 14 24 351
80 67 60 53 36 36 20 18 13 1 11 109 60 58 36 300 226 353 6 25 11 348 30 96 304 104 74 43 31 52 27 51 73 314 26 57 246 61 23 21 21 11 7 27 74 33 17 25 19 3 16 340 312 303
69 58 51 34 13 29 21 23 6 328 64 47 69 88 232 134 49 32 35 64 324 23 8 271 152 101 351 94 134 4 132 5 81 267 105 21 308 44 3 22 17 11 14 25 32 48 34 40 3 15 20 17 11 3
67 19 12 12 360 355 16 5 339 69 141 166 114 72 44 37 39 75 351 338 48 202 303 100 171 133 45 71 91 355 99 45 185 245 83 14 268 16 2 355 2 11 8 21 23 22 8 19 9 13 19 7 353 331
43 18 6 24 15 9 12 14 322 161 126 52 43 58 57 321 47 92 242 314 331 219 266 37 71 68 46 51 61 76 72 208 202 70 207 216 17 13 357 353 347 11 10 16 14 14 16 16 30 29 4 341 331 351
16 28 29 23 34 21 11 350 299 163 57 78 100 62 108 338 227 177 184 180 253 134 174 96 66 77 354 54 110 84 256 17 53 94 235 316 4 336 345 354 0 350 358 4 5 357 6 10 10 15 10 343 341 4
130 75 57 39 26 14 12 33 62 39 66 91 65 96 57 223 65 258 237 321 357 303 14 45 45 67 24 81 42 100 40 287 198 221 282 341 341 341 342 348 354 349 347 351 348 356 356 356 3 348 5 353 358 355
69 58 2 37 21 20 45 61 29 73 59 60 31 57 352 64 353 21 357 5 7 327 352 49 83 56 34 112 64 198 117 212 249 221 285 324 321 311 307 324 332 329 327 331 343 342 337 358 349 324 337 12 6 8
69 31 334 31 25 52 40 67 65 52 64 46 40 51 81 78 133 267 323 324 317 359 81 92 68 201 106 48 26 27 183 257 251 292 304 282 296 316 318 304 334 342 335 339 334 352 344 327 327 20 21 350 355 351
53 322 21 22 40 56 40 29 73 67 63 29 67 316 355 49 9 341 330 347 2 39 61 109 116 60 127 138 281 326 349 281 228 253 293 313 328 321 310 335 333 341 336 327 331 312 337 11 20 8 325 334 328 354
49 33 27 23 66 85 62 31 45 89 72 218 26 15 66 59 36 330 313 322 341 16 59 25 59 58 60 4 319 323 9 356 332 318 300 271 329 334 337 344 344 354 346 330 339 336 315 286 286 323 321 340 342 326
28 30 14 31 54 76 62 15 38 77 75 311 46 18 76 64 307 350 11 14 31 38 38 41 76 227 243 251 229 246 269 297 313 325 317 37 9 353 348 352 350 332 311 320 311 338 349 9 343 339 335 353 355 326
24 357 8 50 46 60 82 12 52 88 148 75 295 37 16 15 27 13 6 348 57 39 48 275 254 258 262 248 230 235 287 291 266 192 255 300 328 322 307 299 336 297 316 323 347 340 15 356 303 318 334 326 305 297
331 5 49 16 64 58 76 19 99 294 63 182 40 27 30 24 355 4 315 42 54 270 194 239 267 276 304 302 283 232 251 269 263 268 267 277 297 317 321 333 345 337 339 331 331 329 320 303 303 304 325 304 323 315
17 24 41 13 64 41 328 6 57 5 59 345 22 40 16 8 293 58 67 94 217 238 224 245 264 259 245 285 311 291 233 344 305 290 291 280 285 272 279 280 210 267 325 308 260 288 283 290 299 302 298 316 335 317
35 45 34 40 27 26 337 25 32 30 41 29 42 30 4 326 318 55 70 293 251 327 349 295 338 326 340 6 324 274 270 167 272 278 242 225 302 293 268 283 270 237 225 270 282 286 291 290 309 322 314 322 327 313
63 3 30 6 5 27 29 16 360 26 45 338 45 25 1 333 54 50 33 290 325 297 274 312 328 199 206 263 276 269 235 172 272 303 272 193 239 303 307 293 281 231 217 15 331 313 304 334 349 326 315 319 312 306
66 336 50 339 358 48 333 44 23 8 8 23 352 292 322 43 54 338 261 250 251 235 243 233 267 310 279 214 264 299 267 191 151 234 275 188 198 196 268 293 312 293 171 145 286 310 321 331 317 316 309 309 305 304
50 346 337 14 116 108 48 23 74 70 48 15 323 343 0 58 2 279 282 209 245 234 216 220 218 234 252 276 261 254 251 196 209 250 278 262 244 217 215 242 259 248 196 234 219 209 261 284 283 281 282 284 254 250
124 22 39 332 12 9 106 49 42 24 297 262 62 23 103 167 241 261 233 235 245 297 273 256 231 225 246 260 270 286 288 287 289 266 261 255 240 224 215 231 248 269 270 234 241 236 227 242 258 268 269 271 280 243
32 333 132 10 13 41 62 109 228 242 205 119 144 268 252 243 252 248 275 273 33 29 322 324 309 348 284 276 257 249 240 155 46 332 312 288 323 299 202 220 245 258 255 262 268 259 244 237 240 248 251 255 265 263
331 23 37 28 68 18 262 165 231 255 237 210 268 303 283 268 251 250 286 306 285 263 248 245 268 84 274 327 308 311 248 185 195 191 214 251 234 244 228 244 254 252 231 229 257 270 277 287 306 311 290 283 273 271
297 23 45 46 129 248 234 257 306 321 353 272 289 196 256 304 303 241 211 217 209 88 334 295 293 206 213 234 214 286 301 238 218 233 242 262 269 269 266 261 256 248 234 238 251 255 264 269 255 263 267 266 265 259
4 68 65 9 309 289 35 36 303 295 306 338 268 256 301 340 293 281 198 137 90 284 242 205 246 274 212 235 237 237 247 271 260 242 236 243 250 253 256 256 249 234 239 248 247 248 246 246 259 257 262 264 264 263
9 88 226 336 342 353 341 2 1 335 341 309 276 215 231 199 246 275 267 214 223 234 260 254 245 257 256 249 249 260 244 245 253 258 260 255 252 256 260 253 247 242 243 249 252 250 250 249 254 258 258 258 262 264